Time,TemperatureF,DewpointF,PressureIn,WindDirection,WindDirectionDegrees,WindSpeedMPH,WindSpeedGustMPH,Humidity,HourlyPrecipIn,Conditions,Clouds,dailyrainin,SoftwareType,DateUTC
2013-05-27 00:14:00,67.0,65.0,30.13,ESE,107,0.0,0.0,93,0.00,,,0.00,weatherlink.com 1.10,2013-05-27 05:14:00,
2013-05-27 00:29:00,66.3,65.0,30.13,ESE,114,0.0,0.0,94,0.00,,,0.00,weatherlink.com 1.10,2013-05-27 05:29:00,
2013-05-27 00:44:00,66.2,65.0,30.13,ESE,115,0.0,0.0,95,0.00,,,0.00,weatherlink.com 1.10,2013-05-27 05:44:00,
2013-05-27 00:59:00,65.6,64.0,30.12,ESE,114,0.0,0.0,95,0.00,,,0.00,weatherlink.com 1.10,2013-05-27 05:59:00,
2013-05-27 01:14:00,65.6,65.0,30.12,ESE,117,0.0,0.0,96,0.00,,,0.00,weatherlink.com 1.10,2013-05-27 06:14:00,
2013-05-27 01:29:00,65.0,64.0,30.12,ESE,117,0.0,0.0,96,0.00,,,0.00,weatherlink.com 1.10,2013-05-27 06:29:00,
2013-05-27 01:44:00,64.7,64.0,30.12,ESE,117,0.0,0.0,96,0.00,,,0.00,weatherlink.com 1.10,2013-05-27 06:44:00,
2013-05-27 01:59:00,64.4,63.0,30.12,ESE,117,0.0,0.0,96,0.00,,,0.00,weatherlink.com 1.10,2013-05-27 06:59:00,
2013-05-27 02:14:00,64.3,63.0,30.12,ESE,117,0.0,0.0,96,0.00,,,0.00,weatherlink.com 1.10,2013-05-27 07:14:00,
2013-05-27 02:29:00,63.9,63.0,30.12,ESE,117,0.0,0.0,96,0.00,,,0.00,weatherlink.com 1.10,2013-05-27 07:29:00,
2013-05-27 02:44:00,63.9,63.0,30.12,ESE,117,0.0,0.0,96,0.00,,,0.00,weatherlink.com 1.10,2013-05-27 07:44:00,
2013-05-27 02:59:00,63.5,62.0,30.11,ESE,117,0.0,0.0,96,0.00,,,0.00,weatherlink.com 1.10,2013-05-27 07:59:00,
2013-05-27 03:14:00,63.2,62.0,30.12,ESE,117,0.0,0.0,96,0.00,,,0.00,weatherlink.com 1.10,2013-05-27 08:14:00,
2013-05-27 03:29:00,62.9,62.0,30.12,ESE,110,0.0,0.0,97,0.00,,,0.00,weatherlink.com 1.10,2013-05-27 08:29:00,
2013-05-27 03:44:00,62.9,62.0,30.12,ESE,110,0.0,0.0,97,0.00,,,0.00,weatherlink.com 1.10,2013-05-27 08:44:00,
2013-05-27 03:59:00,63.2,62.0,30.12,ESE,110,0.0,0.0,97,0.00,,,0.00,weatherlink.com 1.10,2013-05-27 08:59:00,
2013-05-27 04:14:00,63.7,63.0,30.11,East,94,0.0,0.0,97,0.00,,,0.00,weatherlink.com 1.10,2013-05-27 09:14:00,
2013-05-27 04:29:00,63.7,63.0,30.11,East,94,0.0,0.0,97,0.00,,,0.00,weatherlink.com 1.10,2013-05-27 09:29:00,
2013-05-27 04:44:00,63.7,63.0,30.11,East,94,0.0,0.0,97,0.00,,,0.00,weatherlink.com 1.10,2013-05-27 09:44:00,
2013-05-27 04:59:00,63.5,63.0,30.11,East,94,0.0,0.0,97,0.00,,,0.00,weatherlink.com 1.10,2013-05-27 09:59:00,
2013-05-27 05:14:00,63.5,63.0,30.12,East,94,0.0,0.0,97,0.00,,,0.00,weatherlink.com 1.10,2013-05-27 10:14:00,
2013-05-27 05:29:00,63.4,63.0,30.12,East,94,0.0,0.0,97,0.00,,,0.00,weatherlink.com 1.10,2013-05-27 10:29:00,
2013-05-27 05:44:00,63.1,62.0,30.13,East,94,0.0,0.0,97,0.00,,,0.00,weatherlink.com 1.10,2013-05-27 10:44:00,
2013-05-27 05:59:00,63.1,62.0,30.14,East,94,0.0,0.0,97,0.00,,,0.00,weatherlink.com 1.10,2013-05-27 10:59:00,
2013-05-27 06:14:00,63.2,62.0,30.14,East,94,0.0,0.0,97,0.00,,,0.00,weatherlink.com 1.10,2013-05-27 11:14:00,
2013-05-27 06:30:00,63.5,63.0,30.15,East,94,0.0,0.0,97,0.00,,,0.00,weatherlink.com 1.10,2013-05-27 11:30:00,
2013-05-27 06:45:00,64.3,64.0,30.16,East,94,0.0,0.0,97,0.00,,,0.00,weatherlink.com 1.10,2013-05-27 11:45:00,
2013-05-27 07:01:00,66.1,65.0,30.16,NNE,18,0.0,0.0,97,0.00,,,0.00,weatherlink.com 1.10,2013-05-27 12:01:00,
2013-05-27 07:15:00,67.2,66.0,30.16,North,359,0.0,1.0,97,0.00,,,0.00,weatherlink.com 1.10,2013-05-27 12:15:00,
2013-05-27 07:30:00,68.4,68.0,30.16,NNE,30,0.0,1.0,97,0.00,,,0.00,weatherlink.com 1.10,2013-05-27 12:30:00,
2013-05-27 07:45:00,70.2,69.0,30.16,ENE,64,0.0,0.0,97,0.00,,,0.00,weatherlink.com 1.10,2013-05-27 12:45:00,
2013-05-27 08:00:00,73.2,71.0,30.16,North,350,0.0,0.0,94,0.00,,,0.00,weatherlink.com 1.10,2013-05-27 13:00:00,
2013-05-27 08:15:00,76.3,73.0,30.17,NNW,340,0.0,0.0,88,0.00,,,0.00,weatherlink.com 1.10,2013-05-27 13:15:00,
2013-05-27 08:30:00,76.4,71.0,30.17,NNW,347,0.0,2.0,84,0.00,,,0.00,weatherlink.com 1.10,2013-05-27 13:30:00,
2013-05-27 08:45:00,77.3,72.0,30.17,North,353,0.0,1.0,84,0.00,,,0.00,weatherlink.com 1.10,2013-05-27 13:45:00,
2013-05-27 09:00:00,77.5,71.0,30.17,NNE,23,0.0,0.0,81,0.00,,,0.00,weatherlink.com 1.10,2013-05-27 14:00:00,
2013-05-27 09:15:00,77.5,71.0,30.17,ENE,70,0.0,2.0,79,0.00,,,0.00,weatherlink.com 1.10,2013-05-27 14:15:00,
2013-05-27 09:30:00,79.3,67.0,30.17,East,82,0.0,2.0,65,0.00,,,0.00,weatherlink.com 1.10,2013-05-27 14:30:00,
2013-05-27 09:45:00,81.4,64.0,30.17,East,88,1.0,6.0,56,0.00,,,0.00,weatherlink.com 1.10,2013-05-27 14:45:00,
2013-05-27 10:00:00,82.2,63.0,30.16,SE,145,3.0,8.0,53,0.00,,,0.00,weatherlink.com 1.10,2013-05-27 15:00:00,
2013-05-27 10:15:00,82.5,61.0,30.16,East,97,1.0,6.0,49,0.00,,,0.00,weatherlink.com 1.10,2013-05-27 15:15:00,
2013-05-27 10:30:00,83.2,62.0,30.16,East,99,4.0,7.0,49,0.00,,,0.00,weatherlink.com 1.10,2013-05-27 15:30:00,
2013-05-27 10:45:00,83.9,61.0,30.15,SW,235,2.0,7.0,46,0.00,,,0.00,weatherlink.com 1.10,2013-05-27 15:45:00,
2013-05-27 11:00:00,85.4,60.0,30.15,SSE,148,1.0,6.0,43,0.00,,,0.00,weatherlink.com 1.10,2013-05-27 16:00:00,
2013-05-27 11:15:00,84.0,60.0,30.15,SSE,150,3.0,6.0,44,0.00,,,0.00,weatherlink.com 1.10,2013-05-27 16:15:00,
2013-05-27 11:30:00,85.5,60.0,30.15,SW,214,0.0,8.0,43,0.00,,,0.00,weatherlink.com 1.10,2013-05-27 16:30:00,
2013-05-27 11:45:00,86.4,61.0,30.14,East,82,2.0,7.0,43,0.00,,,0.00,weatherlink.com 1.10,2013-05-27 16:45:00,
2013-05-27 12:00:00,87.0,63.0,30.14,SE,131,1.0,9.0,45,0.00,,,0.00,weatherlink.com 1.10,2013-05-27 17:00:00,
2013-05-27 12:15:00,87.7,63.0,30.14,SSW,208,5.0,7.0,43,0.00,,,0.00,weatherlink.com 1.10,2013-05-27 17:15:00,
2013-05-27 12:30:00,86.7,61.0,30.13,NE,56,0.0,8.0,42,0.00,,,0.00,weatherlink.com 1.10,2013-05-27 17:30:00,
2013-05-27 12:45:00,88.2,63.0,30.12,SE,129,1.0,7.0,43,0.00,,,0.00,weatherlink.com 1.10,2013-05-27 17:45:00,
2013-05-27 13:00:00,87.7,63.0,30.12,SW,226,6.0,7.0,43,0.00,,,0.00,weatherlink.com 1.10,2013-05-27 18:00:00,
2013-05-27 13:15:00,88.0,63.0,30.12,East,101,2.0,8.0,43,0.00,,,0.00,weatherlink.com 1.10,2013-05-27 18:15:00,
2013-05-27 13:30:00,88.6,61.0,30.11,WSW,246,2.0,7.0,40,0.00,,,0.00,weatherlink.com 1.10,2013-05-27 18:30:00,
2013-05-27 13:45:00,89.1,60.0,30.11,South,186,4.0,7.0,38,0.00,,,0.00,weatherlink.com 1.10,2013-05-27 18:45:00,
2013-05-27 14:00:00,87.4,62.0,30.10,SE,135,1.0,9.0,42,0.00,,,0.00,weatherlink.com 1.10,2013-05-27 19:00:00,
2013-05-27 14:15:00,87.9,62.0,30.09,SSW,211,4.0,9.0,42,0.00,,,0.00,weatherlink.com 1.10,2013-05-27 19:15:00,
2013-05-27 14:30:00,89.2,60.0,30.09,East,91,2.0,9.0,38,0.00,,,0.00,weatherlink.com 1.10,2013-05-27 19:30:00,
2013-05-27 14:45:00,88.6,61.0,30.09,SSW,198,0.0,5.0,40,0.00,,,0.00,weatherlink.com 1.10,2013-05-27 19:45:00,
2013-05-27 15:00:00,88.9,62.0,30.08,NE,50,3.0,8.0,41,0.00,,,0.00,weatherlink.com 1.10,2013-05-27 20:00:00,
2013-05-27 15:15:00,88.4,60.0,30.07,SSW,207,1.0,11.0,39,0.00,,,0.00,weatherlink.com 1.10,2013-05-27 20:15:00,
2013-05-27 15:30:00,89.7,59.0,30.07,North,349,0.0,4.0,36,0.00,,,0.00,weatherlink.com 1.10,2013-05-27 20:30:00,
2013-05-27 15:45:00,89.9,62.0,30.07,SE,124,0.0,5.0,39,0.00,,,0.00,weatherlink.com 1.10,2013-05-27 20:45:00,
2013-05-27 16:00:00,89.4,61.0,30.06,ESE,105,2.0,4.0,38,0.00,,,0.00,weatherlink.com 1.10,2013-05-27 21:00:00,
2013-05-27 16:15:00,88.8,62.0,30.05,ESE,103,1.0,6.0,41,0.00,,,0.00,weatherlink.com 1.10,2013-05-27 21:15:00,
2013-05-27 16:30:00,88.7,60.0,30.05,SSE,149,1.0,8.0,38,0.00,,,0.00,weatherlink.com 1.10,2013-05-27 21:30:00,
2013-05-27 16:45:00,89.9,62.0,30.05,South,190,2.0,5.0,39,0.00,,,0.00,weatherlink.com 1.10,2013-05-27 21:45:00,
2013-05-27 17:00:00,89.4,61.0,30.04,South,183,1.0,4.0,39,0.00,,,0.00,weatherlink.com 1.10,2013-05-27 22:00:00,
2013-05-27 17:15:00,89.2,61.0,30.04,SSW,200,2.0,7.0,39,0.00,,,0.00,weatherlink.com 1.10,2013-05-27 22:15:00,
2013-05-27 17:30:00,89.0,61.0,30.04,SSW,195,0.0,4.0,39,0.00,,,0.00,weatherlink.com 1.10,2013-05-27 22:30:00,
2013-05-27 17:45:00,87.1,63.0,30.03,ESE,103,1.0,4.0,44,0.00,,,0.00,weatherlink.com 1.10,2013-05-27 22:45:00,
2013-05-27 18:00:00,86.6,62.0,30.04,East,88,0.0,3.0,44,0.00,,,0.00,weatherlink.com 1.10,2013-05-27 23:00:00,
2013-05-27 18:15:00,85.6,65.0,30.04,East,96,0.0,1.0,50,0.00,,,0.00,weatherlink.com 1.10,2013-05-27 23:15:00,
2013-05-27 18:30:00,84.4,63.0,30.04,SE,139,0.0,2.0,49,0.00,,,0.00,weatherlink.com 1.10,2013-05-27 23:30:00,
2013-05-27 18:45:00,83.7,64.0,30.04,NE,47,0.0,2.0,52,0.00,,,0.00,weatherlink.com 1.10,2013-05-27 23:45:00,
2013-05-27 19:00:00,82.4,66.0,30.04,ENE,76,0.0,1.0,57,0.00,,,0.00,weatherlink.com 1.10,2013-05-28 00:00:00,
2013-05-27 19:15:00,80.6,64.0,30.03,ENE,76,0.0,0.0,58,0.00,,,0.00,weatherlink.com 1.10,2013-05-28 00:15:00,
2013-05-27 19:30:00,78.6,63.0,30.04,ENE,77,0.0,0.0,60,0.00,,,0.00,weatherlink.com 1.10,2013-05-28 00:30:00,
2013-05-27 19:45:00,76.8,65.0,30.04,SE,141,3.0,3.0,67,0.00,,,0.00,weatherlink.com 1.10,2013-05-28 00:45:00,
2013-05-27 20:00:00,77.3,64.0,30.04,SSE,152,1.0,7.0,64,0.00,,,0.00,weatherlink.com 1.10,2013-05-28 01:00:00,
2013-05-27 20:15:00,77.7,64.0,30.05,South,191,1.0,7.0,62,0.00,,,0.00,weatherlink.com 1.10,2013-05-28 01:15:00,
2013-05-27 20:30:00,77.0,63.0,30.05,South,181,0.0,4.0,63,0.00,,,0.00,weatherlink.com 1.10,2013-05-28 01:30:00,
2013-05-27 20:45:00,76.1,63.0,30.06,South,169,0.0,6.0,64,0.00,,,0.00,weatherlink.com 1.10,2013-05-28 01:45:00,
2013-05-27 21:00:00,75.1,62.0,30.06,SSE,165,1.0,2.0,65,0.00,,,0.00,weatherlink.com 1.10,2013-05-28 02:00:00,
2013-05-27 21:15:00,74.4,63.0,30.07,SSW,193,0.0,3.0,67,0.00,,,0.00,weatherlink.com 1.10,2013-05-28 02:15:00,
2013-05-27 21:30:00,73.4,62.0,30.07,SSE,163,0.0,3.0,68,0.00,,,0.00,weatherlink.com 1.10,2013-05-28 02:30:00,
2013-05-27 21:45:00,72.8,62.0,30.08,SSW,203,0.0,3.0,68,0.00,,,0.00,weatherlink.com 1.10,2013-05-28 02:45:00,
2013-05-27 22:00:00,72.1,61.0,30.08,ESE,105,0.0,1.0,68,0.00,,,0.00,weatherlink.com 1.10,2013-05-28 03:00:00,
2013-05-27 22:15:00,70.9,61.0,30.09,SE,138,0.0,0.0,70,0.00,,,0.00,weatherlink.com 1.10,2013-05-28 03:15:00,
2013-05-27 22:30:00,69.2,61.0,30.09,SE,129,0.0,0.0,75,0.00,,,0.00,weatherlink.com 1.10,2013-05-28 03:30:00,
2013-05-27 22:45:00,67.5,60.0,30.09,SE,128,0.0,0.0,77,0.00,,,0.00,weatherlink.com 1.10,2013-05-28 03:45:00,
2013-05-27 23:00:00,66.5,60.0,30.09,ESE,107,0.0,0.0,79,0.00,,,0.00,weatherlink.com 1.10,2013-05-28 04:00:00,
2013-05-27 23:15:00,65.7,60.0,30.10,ESE,107,0.0,0.0,81,0.00,,,0.00,weatherlink.com 1.10,2013-05-28 04:15:00,
2013-05-27 23:30:00,64.9,60.0,30.10,ESE,108,0.0,0.0,83,0.00,,,0.00,weatherlink.com 1.10,2013-05-28 04:30:00,
2013-05-27 23:45:00,63.9,59.0,30.10,ESE,108,0.0,0.0,85,0.00,,,0.00,weatherlink.com 1.10,2013-05-28 04:45:00,